GW1109 Weather Reports


time (UTC)temp
F
wind
direction
speed
knots
gust
knots
rain 1hr
in
rain 24hr
in
rain mn
in
humidity
%
barometer
mb
20260503231541 47 315 10.4 18.2 0.00 0.09 0.00 41 1005.9
20260503230107 47 279 6.1 15.6 0.00 0.09 0.00 42 1005.8
20260503224546 48 307 14.8 24.3 0.00 0.10 0.00 39 1005.5
20260503223045 48 310 9.6 20.0 0.00 0.10 0.00 39 1005.1
20260503221545 48 315 11.3 22.6 0.00 0.10 0.00 39 1005.2
20260503220048 49 335 8.7 18.2 0.00 0.10 0.00 41 1004.9
20260503214555 48 355 10.4 16.5 0.00 0.12 0.00 41 1004.8
20260503213047 48 311 7.8 16.5 0.00 0.12 0.00 42 1004.7
20260503211548 49 302 8.7 17.4 0.00 0.12 0.00 43 1004.6
20260503210046 49 312 7.8 16.5 0.00 0.12 0.00 44 1004.3
20260503204545 48 298 13.0 20.9 0.00 0.19 0.00 43 1004.2
20260503203102 49 328 10.4 18.2 0.00 0.19 0.00 46 1004.0
20260503201541 50 289 10.4 17.4 0.00 0.19 0.00 43 1003.9
20260503200049 50 315 7.0 17.4 0.00 0.19 0.00 45 1003.9
20260503194547 49 355 9.6 17.4 0.00 0.28 0.00 47 1004.1
20260503193045 49 300 8.7 18.2 0.00 0.28 0.00 46 1004.0
20260503191547 50 305 7.0 16.5 0.00 0.28 0.00 52 1004.2
20260503190044 50 310 8.7 16.5 0.00 0.28 0.00 51 1004.3
20260503184540 49 360 10.4 17.4 0.00 0.34 0.00 52 1004.3
20260503183047 49 285 7.8 18.2 0.00 0.34 0.00 51 1004.3
20260503181557 49 332 8.7 14.8 0.00 0.34 0.00 51 1004.3
20260503180053 48 338 7.8 13.9 0.00 0.34 0.00 54 1004.4
20260503174546 48 298 4.3 11.3 0.00 0.36 0.00 62 1004.4
20260503173044 47 355 4.3 9.6 0.00 0.36 0.00 63 1004.5
20260503171540 46 314 7.0 12.2 0.00 0.36 0.00 63 1004.5
20260503081550 49 5 0.9 2.6 0.00 0.44 0.00 100 1007.1
20260503071546 50 321 1.7 7.8 0.00 0.44 0.00 100 1007.8
20260503060110 50 16 0.0 1.7 0.00 0.44 0.00 100 1008.3
20260503054600 50 98 0.0 3.5 0.00 0.44 0.00 100 1008.4
20260503053046 50 0 0.0 2.6 0.00 0.44 0.00 100 1008.5
20260503051542 50 97 0.9 2.6 0.00 0.44 0.00 100 1008.8
20260503050040 50 10 0.9 3.5 0.00 0.44 0.00 100 1009.1
20260503044549 50 341 2.6 5.2 0.00 0.44 0.00 100 1009.3
20260503043049 50 321 2.6 4.3 0.00 0.44 0.00 100 1009.5
20260503041543 50 284 2.6 3.5 0.00 0.44 0.00 100 1009.9
20260503040044 50 331 3.5 6.1 0.00 0.44 0.00 100 1009.8
20260503034541 50 296 0.9 2.6 0.00 0.44 0.44 100 1009.8
20260503033048 50 74 0.0 3.5 0.00 0.44 0.44 100 1009.6
20260503031547 50 5 0.9 3.5 0.00 0.44 0.44 100 1009.3
20260503030048 50 355 0.9 3.5 0.00 0.44 0.44 100 1009.8
20260503024547 50 41 0.0 2.6 0.01 0.44 0.44 100 1009.8
20260503023040 50 0 0.0 2.6 0.01 0.44 0.44 100 1009.8
20260503021542 50 325 0.9 3.5 0.01 0.44 0.44 100 1009.8
20260503020048 50 5 0.0 2.6 0.02 0.44 0.44 100 1010.4
20260503014547 50 0 0.0 1.7 0.02 0.43 0.43 100 1010.6
20260503013045 50 0 0.0 2.6 0.03 0.43 0.43 100 1010.6
20260503011546 50 348 0.0 1.7 0.03 0.43 0.43 100 1010.6
20260503010041 50 337 0.9 2.6 0.04 0.42 0.42 100 1010.5
20260503004541 50 338 0.0 1.7 0.03 0.41 0.41 100 1010.5
20260503003046 50 30 0.0 3.5 0.03 0.40 0.40 100 1010.3
20260503001548 50 11 0.0 2.6 0.03 0.39 0.39 100 1010.2
20260503000049 50 28 0.0 3.5 0.03 0.38 0.38 100 1010.0
20260502234554 50 0 0.9 2.6 0.03 0.38 0.38 100 1010.1
20260502233044 51 36 0.0 2.6 0.02 0.37 0.37 100 1010.2